EN

Hourly Weather Amatlan de los Reyes

Today, 21 January, Thursday

Time Temperature Precipitation Wind Pressure Humidity
00:00 +20°C° 0 mm 1 mps 704 mmHg 97%
01:00 +18°C° 0.2 mm 0 mps 703 mmHg 97%
02:00 +18°C° 0.2 mm 0 mps 703 mmHg 96%
03:00 +18°C° 0.2 mm 0 mps 703 mmHg 96%
04:00 +18°C° 0.1 mm 0 mps 703 mmHg 96%
05:00 +18°C° 0.1 mm 0 mps 703 mmHg 96%
06:00 +18°C° 0.1 mm 0 mps 703 mmHg 96%
07:00 +19°C° 0 mm 0 mps 703 mmHg 92%
08:00 +20°C° 0 mm 0 mps 703 mmHg 88%
09:00 +21°C° 0 mm 0 mps 704 mmHg 84%
10:00 +22°C° 0 mm 0 mps 703 mmHg 77%
11:00 +26°C° 0 mm 1 mps 703 mmHg 69%
12:00 +28°C° 0 mm 2 mps 703 mmHg 61%
13:00 +28°C° 0 mm 2 mps 702 mmHg 61%
14:00 +28°C° 0 mm 2 mps 701 mmHg 61%
15:00 +28°C° 0 mm 2 mps 700 mmHg 61%
16:00 +27°C° 0 mm 1 mps 699 mmHg 70%
17:00 +25°C° 0 mm 1 mps 699 mmHg 79%
18:00 +21°C° 0 mm 0 mps 699 mmHg 88%
19:00 +20°C° 0 mm 0 mps 699 mmHg 89%
20:00 +20°C° 0 mm 0 mps 699 mmHg 90%
21:00 +19°C° 0 mm 0 mps 700 mmHg 92%
22:00 +21°C° 0 mm 1 mps 700 mmHg 89%
23:00 +21°C° 0 mm 1 mps 700 mmHg 87%

Tomorrow, 22 January, Friday

Time Temperature Precipitation Wind Pressure Humidity
00:00 +20°C° 0 mm 1 mps 699 mmHg 85%
01:00 +20°C° 0 mm 1 mps 699 mmHg 82%
02:00 +20°C° 0 mm 1 mps 699 mmHg 79%
03:00 +20°C° 0 mm 1 mps 698 mmHg 75%
04:00 +20°C° 0 mm 1 mps 699 mmHg 73%
05:00 +20°C° 0 mm 1 mps 699 mmHg 70%
06:00 +20°C° 0 mm 1 mps 699 mmHg 68%
07:00 +22°C° 0 mm 1 mps 699 mmHg 64%
08:00 +22°C° 0 mm 0 mps 700 mmHg 59%
09:00 +24°C° 0 mm 0 mps 700 mmHg 55%
10:00 +25°C° 0 mm 0 mps 700 mmHg 53%
11:00 +29°C° 0 mm 1 mps 700 mmHg 50%
12:00 +30°C° 0 mm 1 mps 700 mmHg 48%
13:00 +30°C° 0 mm 1 mps 699 mmHg 49%
14:00 +30°C° 0 mm 1 mps 699 mmHg 50%
15:00 +30°C° 0 mm 2 mps 698 mmHg 51%
16:00 +28°C° 0 mm 1 mps 698 mmHg 62%
17:00 +26°C° 0 mm 1 mps 697 mmHg 72%
18:00 +22°C° 0 mm 0 mps 697 mmHg 83%
19:00 +22°C° 0 mm 0 mps 698 mmHg 82%
20:00 +23°C° 0 mm 1 mps 698 mmHg 81%
21:00 +22°C° 0 mm 1 mps 699 mmHg 80%
22:00 +22°C° 0 mm 1 mps 699 mmHg 77%
23:00 +21°C° 0 mm 1 mps 699 mmHg 74%

Day after tomorrow, 23 January, Saturday

Time Temperature Precipitation Wind Pressure Humidity
00:00 +21°C° 0 mm 1 mps 699 mmHg 71%
01:00 +21°C° 0 mm 1 mps 699 mmHg 70%
02:00 +21°C° 0 mm 1 mps 699 mmHg 69%
03:00 +21°C° 0 mm 1 mps 699 mmHg 68%
04:00 +20°C° 0 mm 1 mps 699 mmHg 67%
05:00 +20°C° 0 mm 1 mps 699 mmHg 67%
06:00 +20°C° 0 mm 1 mps 699 mmHg 67%
07:00 +22°C° 0 mm 1 mps 700 mmHg 63%
08:00 +21°C° 0 mm 0 mps 700 mmHg 60%
09:00 +23°C° 0 mm 0 mps 701 mmHg 57%
10:00 +24°C° 0 mm 0 mps 701 mmHg 56%
11:00 +27°C° 0 mm 1 mps 700 mmHg 56%
12:00 +29°C° 0 mm 1 mps 700 mmHg 55%
13:00 +29°C° 0 mm 1 mps 699 mmHg 56%
14:00 +29°C° 0 mm 2 mps 699 mmHg 57%
15:00 +29°C° 0 mm 2 mps 698 mmHg 58%
16:00 +27°C° 0 mm 1 mps 698 mmHg 68%
17:00 +26°C° 0 mm 1 mps 698 mmHg 78%
18:00 +22°C° 0 mm 0 mps 698 mmHg 88%
19:00 +21°C° 0 mm 0 mps 698 mmHg 89%
20:00 +20°C° 0 mm 0 mps 698 mmHg 89%
21:00 +19°C° 0 mm 0 mps 699 mmHg 90%
22:00 +21°C° 0 mm 1 mps 699 mmHg 82%
23:00 +21°C° 0 mm 1 mps 699 mmHg 74%

24 January, Sunday

Time Temperature Precipitation Wind Pressure Humidity
00:00 +21°C° 0 mm 1 mps 698 mmHg 65%
01:00 +20°C° 0 mm 1 mps 698 mmHg 59%
02:00 +20°C° 0 mm 1 mps 698 mmHg 53%
03:00 +20°C° 0 mm 1 mps 698 mmHg 47%
04:00 +20°C° 0 mm 1 mps 698 mmHg 45%
05:00 +20°C° 0 mm 1 mps 698 mmHg 42%
06:00 +20°C° 0 mm 1 mps 698 mmHg 40%
07:00 +21°C° 0 mm 1 mps 698 mmHg 41%
08:00 +23°C° 0 mm 1 mps 699 mmHg 41%
09:00 +22°C° 0 mm 0 mps 699 mmHg 42%
10:00 +26°C° 0 mm 1 mps 699 mmHg 42%
11:00 +27°C° 0 mm 1 mps 699 mmHg 42%
12:00 +29°C° 0 mm 1 mps 699 mmHg 43%
13:00 +29°C° 0 mm 1 mps 698 mmHg 44%
14:00 +29°C° 0 mm 1 mps 697 mmHg 45%
15:00 +30°C° 0 mm 1 mps 697 mmHg 46%
16:00 +28°C° 0 mm 1 mps 696 mmHg 56%
17:00 +26°C° 0 mm 1 mps 696 mmHg 66%
18:00 +22°C° 0 mm 0 mps 696 mmHg 75%
19:00 +23°C° 0 mm 1 mps 696 mmHg 73%
20:00 +23°C° 0 mm 1 mps 697 mmHg 71%
21:00 +22°C° 0 mm 1 mps 697 mmHg 70%
22:00 +22°C° 0 mm 1 mps 697 mmHg 69%
23:00 +22°C° 0 mm 1 mps 697 mmHg 68%

25 January, Monday

Time Temperature Precipitation Wind Pressure Humidity
00:00 +22°C° 0 mm 1 mps 697 mmHg 67%
01:00 +22°C° 0 mm 1 mps 697 mmHg 67%
02:00 +22°C° 0 mm 1 mps 697 mmHg 68%
03:00 +21°C° 0 mm 2 mps 696 mmHg 69%
04:00 +21°C° 0 mm 2 mps 696 mmHg 69%
05:00 +20°C° 0 mm 2 mps 696 mmHg 70%
06:00 +20°C° 0 mm 2 mps 696 mmHg 71%
07:00 +23°C° 0 mm 2 mps 697 mmHg 65%
08:00 +25°C° 0 mm 1 mps 698 mmHg 60%
09:00 +27°C° 0 mm 1 mps 698 mmHg 55%
10:00 +28°C° 0 mm 1 mps 698 mmHg 53%
11:00 +29°C° 0 mm 1 mps 698 mmHg 50%
12:00 +31°C° 0 mm 1 mps 697 mmHg 47%
13:00 +31°C° 0 mm 1 mps 697 mmHg 47%
14:00 +31°C° 0 mm 1 mps 696 mmHg 47%
15:00 +32°C° 0 mm 1 mps 696 mmHg 47%
16:00 +30°C° 0.1 mm 1 mps 695 mmHg 57%
17:00 +28°C° 0.1 mm 1 mps 695 mmHg 67%
18:00 +24°C° 0.1 mm 0 mps 695 mmHg 77%
19:00 +23°C° 0 mm 0 mps 695 mmHg 76%
20:00 +24°C° 0 mm 1 mps 696 mmHg 75%
21:00 +24°C° 0 mm 1 mps 697 mmHg 74%
22:00 +24°C° 0 mm 1 mps 697 mmHg 70%
23:00 +23°C° 0 mm 2 mps 697 mmHg 67%

26 January, Tuesday

Time Temperature Precipitation Wind Pressure Humidity
00:00 +23°C° 0 mm 2 mps 697 mmHg 63%
01:00 +23°C° 0 mm 2 mps 697 mmHg 62%
02:00 +23°C° 0 mm 2 mps 697 mmHg 61%
03:00 +23°C° 0 mm 2 mps 696 mmHg 60%
04:00 +21°C° 0 mm 2 mps 696 mmHg 60%
05:00 +21°C° 0 mm 2 mps 696 mmHg 60%
06:00 +21°C° 0 mm 2 mps 696 mmHg 60%
07:00 +24°C° 0 mm 1 mps 697 mmHg 58%
08:00 +25°C° 0 mm 1 mps 698 mmHg 55%
09:00 +25°C° 0 mm 0 mps 699 mmHg 53%
10:00 +28°C° 0 mm 1 mps 699 mmHg 50%
11:00 +29°C° 0 mm 1 mps 698 mmHg 48%
12:00 +31°C° 0 mm 2 mps 698 mmHg 45%
13:00 +31°C° 0 mm 2 mps 697 mmHg 46%
14:00 +31°C° 0 mm 2 mps 697 mmHg 46%
15:00 +31°C° 0 mm 2 mps 696 mmHg 47%
16:00 +29°C° 0 mm 2 mps 696 mmHg 57%
17:00 +27°C° 0 mm 1 mps 696 mmHg 67%
18:00 +26°C° 0 mm 1 mps 696 mmHg 77%
19:00 +25°C° 0 mm 1 mps 696 mmHg 78%
20:00 +24°C° 0 mm 1 mps 697 mmHg 79%
21:00 +23°C° 0 mm 1 mps 697 mmHg 79%
22:00 +23°C° 0 mm 1 mps 697 mmHg 77%
23:00 +23°C° 0 mm 1 mps 697 mmHg 74%
Show more